Simultaneous Nadir Overpasses (SNOs) Predictions

Prediction of SNOs between NOAA-19 and METOP-C Satellite Orbit:

Table of predicted SNOs for the next 14.0 days since TLE Epoch: 7/29/2023
Index Date (NOAA-19) Time (NOAA-19) Lat,Lon (NOAA-19) SZA (NOAA-19 ) Date (METOP-C) Time (METOP-C) Lat,Lon (METOP-C) SZA (METOP-C ) Distance(km) Time Diff (sec)
1 08/03/2023 20:41:39 80.88, -97.37 64.86 08/03/2023 20:42:41 80.88, -97.23 64.89 2.33 62
2 08/03/2023 21:32:36 -80.88, 70.25 115.10 08/03/2023 21:33:22 -80.88, 70.20 115.09 0.97 46
3 08/03/2023 22:23:37 80.88,-122.51 64.91 08/03/2023 22:24:02 80.89,-122.40 64.93 2.01 25
4 08/03/2023 23:14:34 -80.89, 45.11 115.05 08/03/2023 23:14:43 -80.89, 45.04 115.05 1.36 9
5 08/04/2023 00:05:35 80.89,-147.65 64.97 08/04/2023 00:05:23 80.89,-147.56 64.98 1.74 12
6 08/04/2023 00:56:33 -80.89, 19.61 115.03 08/04/2023 00:56:05 -80.88, 19.52 115.05 1.82 28
7 08/04/2023 01:47:33 80.90,-172.80 65.02 08/04/2023 01:46:44 80.90,-172.72 65.02 1.58 49



Historial Predications of SNOs between NOAA-19 and METOP-C
